Regional Weather Roundup
Issued by NWS

Home | Current Version | Previous Version | Text Only | Print | Product List | Glossary Off
Versions: 1 2 3 4 5 6 7 8 9 10 11 12 13 14 15 16 17 18 19 20 21 22 23 24 25 26 27 28 29 30 31 32 33 34 35 36 37 38 39 40 41 42 43 44 45 46 47 48 49 50

000
ASUS43 KBIS 230110
RWRND

NORTH DAKOTA REGIONAL WEATHER ROUNDUP
NATIONAL WEATHER SERVICE BISMARCK ND
800 PM CDT FRI JUL 22 2016

NOTE: "FAIR" INDICATES FEW OR NO CLOUDS BELOW 12,000 FEET WITH NO
SIGNIFICANT WEATHER AND/OR OBSTRUCTIONS TO VISIBILITY.


NDZ001>003-009>011-017-230200-
NORTHWEST NORTH DAKOTA

CITY           SKY/WX    TMP DP  RH WIND       PRES   REMARKS
WILLISTON      SUNNY     85  60  42 E21       29.85F
MINOT          SUNNY     81  64  56 E14G21    29.94S
MINOT AFB      SUNNY     80  63  57 E14       29.93S
$$

NDZ018>021-031>035-040>046-230200-
SOUTHWEST NORTH DAKOTA

CITY           SKY/WX    TMP DP  RH WIND       PRES   REMARKS
BISMARCK       CLOUDY    76  67  73 SW13      29.99R THUNDER
DICKINSON      TSTM      74  67  78 SE20G26   29.92R
GARRISON         N/A     81  67  62 E16       29.94R
HETTINGER ARPT CLOUDY    75  63  66 E5        29.89F
$$

NDZ004>008-012>016-024-026-027-054-230200-
NORTHEAST NORTH DAKOTA

CITY           SKY/WX    TMP DP  RH WIND       PRES   REMARKS
GRAND FORKS    CLOUDY    81  64  56 E5        29.97R
GRND FRKS AFB  CLOUDY    80  64  56 E7        29.97S
DEVILS LAKE    CLOUDY    78  66  66 E10       29.98S
$$

NDZ022-023-025-028>030-036>039-047>053-230200-
SOUTHEAST NORTH DAKOTA

CITY           SKY/WX    TMP DP  RH WIND       PRES   REMARKS
FARGO          SUNNY     82  68  62 E7        29.92F
JAMESTOWN      CLOUDY    77  71  82 SE7       29.94F
$$





USA.gov is the U.S. government's official web portal to all federal, state and local government web resources and services.